STARLINK-5743, 55597

Orbit data source: Space-Track

STARLINK-5743, 55597 is a payload satellite owned by SpaceX/Seattle (US) in LEO that was launched on Sun, 12 Feb 2023 UTC via an FALCON 9 launch vehicle from the Air Force Eastern Test Range (AFETR). Payload-class satellites include a variety of spacecraft equipped with specific instruments for various scientific and technological missions. These include communications satellites like Starlink; space stations such as the ISS; scientific satellites like the Hubble; Earth observation satellites from companies like Planet Labs, Umbra, and HawkEye 360; GPS; miniature CubeSats for education and research; and military/defense satellites.

Loading next visibility...
Identifier
55597, 2023-020AE
Orbit
LEO
Country
Flag of USUS
Related business
Manufacturer
SpaceX/Seattle
Mission
Operational spacecraft
Bus & Motor
STARLINK, Unknown motor
Mass
305 kg wet, ~290 kg dry
Launch date (UTC)
2023-02-12 (3 years ago)
Launch vehicle
FALCON 9
Launch site
Air Force Eastern Test Range (AFETR)
Object type
Payload
Rocket body
Debris
Shape & HBR
Unknown shape, 10.1 m
Radar Cross Section
Large (>1 m²)

Expand to show TLE details & history
Last TLE update: 14 hours ago

TLE from 14 hours ago
0 STARLINK-5743
1 55597U 23020AE  26062.29752857 -.00001641  00000-0 -10648-3 0  9995
2 55597  43.0059  26.7622 0001548 257.2486 102.8183 15.02521398168106
Epoch: 2026-03-03T07:08Z
TLE epoch observation values (Epoch: 2026-03-03T07:08:26.468Z)
Latitude
-0.00005°
Longitude
118.57326°
Altitude
559.141 km
Speed
7.584 km/s
True Right ascension
01h 47m 02s
True Declination
0° 00' 00"
Sunlit
Object was in daylight at epoch
Visualization orbit readout
Latitude
Unknown
Longitude
Unknown
Altitude
Unknown
Speed
Unknown
Apparent Right ascension
Unknown
Apparent Declination
Unknown
Sunlit
N/A
Visualization observer readout
Local Sidereal Time
01:13:48
Azimuth
Unknown
Elevation
Unknown
Doppler factor
Unknown
Orbital elements
Apogee altitude
562.122 km
Perigee altitude
559.973 km
Semi-major axis
6,939.184 km
Eccentricity
0.00015
Inclination
43.0059°
RAAN
26.7622°
Arg. of periapsis
257.2486°
True anomaly
102.8356°
Mean anomaly
102.8183°
Eccentric anomaly
102.82695°
Mean motion
3.75475 °/min
Orbital period
95.88 mins
BSTAR
-0.00010648
Loading maneuver chart data...
Computing Atmospheric mass density...
Loading historical data...
Loading historical data...
Loading historical data...
Loading historical data...
Loading historical data...
Loading historical data...
Loading historical data...

Documentation

Showing up to 5 results
|